Showing default

LUCH (OLYMP), 40258

Orbit data source: Space-Track

LUCH (OLYMP), 40258 is a payload satellite owned by FSB (CIS) in GEO that was launched on Sat, 27 Sep 2014 UTC via a PROTON-M/BRIZ-M launch vehicle from the Tyuratam Missile And Space Complex (TTMTR). Payload-class satellites include a variety of spacecraft equipped with specific instruments for various scientific and technological missions. These include communications satellites like Starlink; space stations such as the ISS; scientific satellites like the Hubble; Earth observation satellites from companies like Planet Labs, Umbra, and HawkEye 360; GPS; miniature CubeSats for education and research; and military/defense satellites.

Not visible in the next 10 days
Identifier
40258, 2014-058A
Orbit
GEO
Last TLE update
13 hours ago
Origin
Manufacturer
Resehetnev ISS
Mission
Operational Defense Communications
Bus & Motor
EKSPRESS-2000, Unknown motor
Mass
1,930 kg wet, ~1,800 kg dry
Launch date (UTC)
2014-09-27 (11 years ago)
Launch vehicle
PROTON-M/BRIZ-M
Launch site
Tyuratam Missile And Space Complex (TTMTR)
Object type
Payload
Rocket body
Debris
Shape & HBR
Cyl + 2 Pan + 2 Dish, 16 m
Radar Cross Section
40.926 m², Large (>1 m²)

Expand to show TLE details & history

TLE from 13 hours ago
0 LUCH (OLYMP)
1 40258U 14058A   25129.23986801  .00000057  00000-0  00000-0 0  9995
2 40258   0.8505  87.6611 0001695 319.6970 269.9861  1.00419968 36945
Epoch: 2025-05-09T05:45Z
Definitive object data (Epoch: 2025-05-09T05:45:24.596Z)
Latitude
-0.63092°
Longitude
3.66687°
Altitude
35,744.678 km
Speed
3.076 km/s
True Right ascension
21h 09m 16s
True Declination
0° 37' 49"
Sunlit
Object was in daylight at TLE epoch
Visualization TLE readout
Latitude
0.76986°
Longitude
-157.80532°
Altitude
35,746.74 km
Speed
3.076 km/s
Apparent Right ascension
10h 47m 33s
Apparent Declination
-4° 33' 30"
Sunlit
Object is in daylight
Visualization observer readout
Local Sidereal Time
03:06:55
Azimuth
76.84° E
Elevation
-22.087°
Doppler factor
1
Orbital elements
Apogee altitude
35,753.316 km
Perigee altitude
35,739.036 km
Semi-major axis
42,124.313 km
Eccentricity
0.0001695
Inclination
0.8505°
RAAN
87.6611°
Arg. of periapsis
319.697°
True anomaly
269.96668°
Mean anomaly
269.9861°
Eccentric anomaly
269.97639°
Mean motion
0.25104 °/min
BSTAR
Unknown
Orbital period
1434.03 mins
Loading historical data...
40258 neighbors
Loading maneuver chart data...
Loading SW <> Apogee altitude chart data...
Loading historical data...
Loading historical data...
Loading historical data...
Loading historical data...
Loading historical data...
Loading historical data...
Loading historical data...
Other satellites on launch #58 in the year 2014 (2014-09-27 UTC)

LUCH (OLYMP) Visibility forecast

Observer location: undefined°, undefined°

LUCH (OLYMP) is not visible in the next 10 days
Span
Click to sort rows by Start time (UTC) header in descending order
Start Az.
Max El. time (UTC)
Max El. Az.
Max El.
End time (UTC)
End Az.
|